Meteo Giornale » Osservazioni meteo Gran Bretagna » Islay-Port Ellen
ore: 19:50 - Osservazioni Meteo Islay-Port Ellen
Lat. 55° 40' N Lon. 6° 15' W Alt. 18 metri s.l.m.
14 °C
Pioggia
Temp. 24 Ore
14 °C
16 °C
Nord/NOvest
7.4 Km/h
Dew point 14 °C
Umidità 100 %
Visibilità 5 Km
Il sole sorge alle ore 06:30
Il sole tramonta alle ore 20:19
| Data e Ora | Cielo e Fenomeni | T °C | DP °C | Um. % | Pres. hPa | Vis. km | Vento km/h | |
|---|---|---|---|---|---|---|---|---|
| Oggi h: 19:50 | Pioggia | 14 | 14 | 100 | 1013 | 5 | N/NO 7.4 | |
| Oggi h: 19:20 | Pioggia | 14 | 14 | 100 | 1013 | 4 | N 5.5 | |
| Oggi h: 18:50 | Pioggia | 14 | 13 | 93 | 1013 | 5 | O/NO 7.4 | |
| Oggi h: 18:20 | Molto Nuvoloso | 14 | 14 | 100 | 1013 | 10 | O 7.4 | |
| Oggi h: 17:50 | Pioggia | 14 | 14 | 100 | 1013 | 10 | O 7.4 | |
| Oggi h: 17:20 | Pioggia | 14 | 14 | 100 | 1013 | 10 | O/NO 9.3 | |
| Oggi h: 16:50 | Pioggia | 14 | 14 | 100 | 1013 | 10 | NO 9.3 | |
| Oggi h: 16:20 | Pioggia | 14 | 14 | 100 | 1013 | 2 | NO 16.7 | |
| Oggi h: 15:50 | Pioggia | 14 | 14 | 100 | 1013 | 3 | NO 11.1 | |
| Oggi h: 15:20 | Pioggia | 14 | 14 | 100 | 1013 | 2 | NO 9.3 | |
| Oggi h: 14:50 | Pioggia | 14 | 14 | 100 | 1013 | 4 | N/NO 14.8 | |
| Oggi h: 14:20 | Pioggia | 15 | 14 | 93 | 1013 | 3 | NO 16.7 | |
| Oggi h: 13:50 | Pioggia | 16 | 15 | 93 | 1012 | 10 | O 31.5 | |
| Oggi h: 13:20 | Pioggia | 16 | 15 | 93 | 1012 | 10 | O 25.9 | |
| Oggi h: 12:50 | Pioggia | 16 | 15 | 93 | 1012 | 10 | O 27.8 | |
| Oggi h: 12:20 | Molto Nuvoloso | 16 | 15 | 93 | 1012 | 10 | O/SO 24 | |
| Oggi h: 11:50 | Coperto | 16 | 15 | 93 | 1012 | 10 | O/SO 22.2 | |
| Oggi h: 11:20 | Coperto | 15 | 15 | 100 | 1012 | 10 | O/SO 24 | |
| Oggi h: 10:50 | Pioggia | 15 | 15 | 100 | 1012 | 10 | O/SO 24 | |
| Oggi h: 10:20 | Coperto | 15 | 15 | 100 | 1012 | 10 | O/SO 24 | |
| Oggi h: 09:50 | Pioggia | 15 | 15 | 100 | 1012 | 6 | O/SO 25.9 | |
| Oggi h: 09:20 | Pioggia | 15 | 15 | 100 | 1011 | 3 | O/SO 27.8 | |
| Oggi h: 08:50 | Pioggia | 15 | 14 | 93 | 1011 | 8 | O/SO 29.6 | |
| Oggi h: 08:20 | Pioggia | 15 | 14 | 93 | 1011 | 5 | SO 29.6 | |
| Oggi h: 07:50 | Pioggia | 14 | 14 | 100 | 1011 | 4 | O/SO 24 | |
| Oggi h: 07:20 | Pioggia | 14 | 14 | 100 | 1011 | 3 | O/SO 31.5 | |
| Oggi h: 06:50 | Pioggia | 14 | 14 | 100 | 1011 | 10 | SO 25.9 | |
| Oggi h: 06:20 | Pioggia | 14 | 13 | 93 | 1012 | 10 | SO 24 | |
| Oggi h: 05:50 | Pioggia | 14 | 13 | 93 | 1012 | 10 | S/SO 18.5 | |
| Oggi h: 05:20 | Pioggia | 14 | 13 | 93 | 1012 | 3 | SO 24 | |
| Oggi h: 04:50 | Nuvoloso | 14 | 13 | 93 | 1012 | 10 | S/SO 22.2 | |
| Oggi h: 04:20 | Poco Nuvoloso | 14 | 13 | 93 | 1012 | 10 | SO 24 | |
| Oggi h: 03:50 | Sereno | 14 | 13 | 93 | 1012 | 10 | SO 22.2 | |
| Oggi h: 03:20 | Sereno | 14 | 13 | 93 | 1012 | 10 | SO 22.2 | |
| Oggi h: 02:50 | Pioggia | 14 | 13 | 93 | 1013 | 10 | SO 22.2 | |
| Oggi h: 02:20 | Coperto | 14 | 13 | 93 | 1013 | 10 | SO 20.3 | |
| Oggi h: 01:50 | Pioggia | 14 | 13 | 93 | 1013 | 10 | SO 16.7 | |
| Oggi h: 01:20 | Coperto | 14 | 13 | 93 | 1013 | 10 | SO 20.3 | |
| Oggi h: 00:50 | Molto Nuvoloso | 14 | 13 | 93 | 1013 | 10 | SO 20.3 | |
| Oggi h: 00:20 | Molto Nuvoloso | 14 | 13 | 93 | 1014 | 10 | SO 22.2 | |
| Ieri h: 23:50 | Coperto | 14 | 13 | 93 | 1014 | 7 | SO 25.9 | |
| Ieri h: 23:20 | Pioggia | 14 | 13 | 93 | 1014 | 10 | SO 20.3 | |
| Ieri h: 22:50 | Pioggia | 14 | 13 | 93 | 1014 | 10 | SO 16.7 | |
| Ieri h: 22:20 | Pioggia | 14 | 13 | 93 | 1014 | 10 | SO 18.5 | |
| Ieri h: 21:50 | Pioggia | 14 | 12 | 87 | 1014 | 10 | SO 14.8 | |
| Ieri h: 21:20 | Coperto | 15 | 12 | 82 | 1014 | 10 | O/SO 13 | |
| Ieri h: 20:50 | Nuvoloso | 14 | 12 | 87 | 1014 | 10 | O/SO 13 | |



